Regional Weather Roundup
Issued by NWS

Home | Current Version | Previous Version | Text Only | Print | Product List | Glossary On
Versions: 1 2 3 4 5 6 7 8 9 10 11 12 13 14 15 16 17 18 19 20 21 22 23 24 25 26 27 28 29 30 31 32 33 34 35 36 37 38 39 40 41 42 43 44 45 46 47 48 49 50
000
ASUS46 KPQR 250410
RWROR

OREGON REGIONAL WEATHER ROUNDUP
NATIONAL WEATHER SERVICE PORTLAND OR
900 PM PDT SUN JUL 24 2016

NOTE: "FAIR" INDICATES FEW OR NO CLOUDS BELOW 12,000 FEET WITH
NO SIGNIFICANT WEATHER AND/OR OBSTRUCTIONS TO VISIBILITY.

ORZ001>013-250500-
NORTHWEST OREGON


CITY           SKY/WX    TMP DP  RH WIND       PRES   REMARKS
ASTORIA        CLEAR     63  58  83 NW18      30.03S
NEWPORT        CLOUDY    59  55  88 N7        30.08
PORTLAND       PTCLDY    78  57  48 NW14      29.94R
VANCOUVER WA   CLEAR     78  57  48 NW8       29.93S
SCAPPOOSE      CLEAR     77  55  46 NW9       29.94R
HILLSBORO      CLEAR     76  59  55 NW10      29.95R
AURORA         CLEAR     78  54  43 N3        29.95R
MCMINNVILLE    CLEAR     73  59  61 SW7       29.96R
SALEM          CLEAR     77  59  53 NW6       29.94R
CORVALLIS        N/A     70  57  64 NW20      29.97S
EUGENE         CLEAR     74  57  55 W7        29.96R
$$

ORZ021-028-250500-
SOUTHWEST OREGON


CITY           SKY/WX    TMP DP  RH WIND       PRES   REMARKS
NORTH BEND     CLOUDY    61  57  88 N7        30.08S
BROOKINGS      PTCLDY    56  53  90 CALM      29.99R
ROSEBURG       CLEAR     78  56  46 N9        29.96R
SEXTON SUMMIT  CLEAR     65  48  54 N10       30.07S
MEDFORD        CLEAR     84  50  30 NW7       29.92R
$$

ORZ014>016-041-250500-
COLUMBIA GORGE


CITY           SKY/WX    TMP DP  RH WIND       PRES   REMARKS
TROUTDALE      CLEAR     80  57  45 W3        29.92R
THE DALLES     CLEAR     83  55  38 NW10      29.87R
$$

ORZ029>031-041-044-049-050-061>064-502-503-505>511-250500-
EASTERN OREGON


CITY           SKY/WX    TMP DP  RH WIND       PRES   REMARKS
REDMOND        CLEAR     79  37  22 N9        30.01R
BEND           CLEAR     79  39  24 N8        30.03R
PRINEVILLE     CLEAR     77  41  27 N7        30.02R
KLAMATH FALLS  CLEAR     79  50  36 NW12      30.03R
LAKEVIEW       CLEAR    N/A N/A N/A W8        30.06R
HERMISTON      CLEAR     77  50  38 CALM      29.89S
PENDLETON      CLEAR     76  39  26 N6        29.95R
JOHN DAY       CLEAR     81  29  15 CALM      30.04R
MEACHAM        CLEAR     65  44  46 CALM      30.09S
LA GRANDE      CLEAR     77  41  27 NW8       30.00R
BAKER CITY     CLEAR     67  47  48 SW6       30.04R
BURNS          CLEAR     68  32  26 E3        30.03S
ROME             N/A     79  19  10 NE9       30.00R
ONTARIO        CLEAR     78  51  38 W3        29.93S
$$



USA.gov is the U.S. government's official web portal to all federal, state and local government web resources and services.